Location: *
(53.4003°S, 165.3236°W)
Time: 01:22:45
(UTC+00:00)

Cosmos 2084 Rocket - Pass Details

Date: 11 December 2023
Orbit: 505 x 646 km, 62.8° (Epoch: 24 February)

Event Time Altitude Azimuth Distance (km) Brightness Sun altitude
Rises 12:43:52 0° 230° (SW) 2,991 7.3 -10.0°
Reaches altitude 10° 12:46:11 10° 232° (SW) 2,085 6.4 -9.9°
Maximum altitude 12:50:56 69° 314° (NW) 713 3.7 -9.5°
Drops below altitude 10° 12:55:38 10° 36° (NE) 2,068 6.0 -9.2°
Sets 12:57:56 0° 38° (NE) 2,963 6.8 -9.1°
